Forside
METAR-TAF:

METAR-TAF

Lufthavne :

Farmington Regional Airport

Farmington, Missouri, USA

Breddekreds: 37-46N, længdekreds: 090-26W, højde: 288 m

Aktuelle vejr

Denne rapport blev lavet for 19 minutter siden, kl. 17:56 UTC
Vind 10 kt fra sydsydøst
Temperatur -4°C
Fugtighed 68%
Tryk 1029 hPa
Sigt: 16.1 km
Spredte skyer i en højde af 1800 ft

METAR: KFAM 211756Z AUTO 16010KT 10SM SCT018 M04/M09 A3040 RMK AO2 SLP310 60000 T10441089 11044 21100 56013 FZRANO

Tid: 12:15 (18:15 UTC)


TAF: fraværende

Vejrobservationer og prognoser fra mere end 4000 lufthavne (METAR og TAF).

De gule og røde prikker repræsenterer de meteorologiske stationer.

Flyt musen over at se navnet på stationen.

Så klik over at se vejr observationer og prognoser.

At skifte det kort: Klik på de grønne knapper med et sort kors for at zoome ind; på den grønne knap med en bindestreg for at zoome ud; eller på de grønne pile for tilstødende kort.


METAR-TAF: